Year,Month,Day,Hour,Minute,Value (Times are PST for temperature in C)
2013,07,23,00,00,19.70
2013,07,23,00,01,19.70
2013,07,23,00,02,19.70
2013,07,23,00,03,19.70
2013,07,23,00,04,19.70
2013,07,23,00,05,19.80
2013,07,23,00,06,19.80
2013,07,23,00,07,19.80
2013,07,23,00,08,19.80
2013,07,23,00,09,19.80
2013,07,23,00,10,19.80
2013,07,23,00,11,19.80
2013,07,23,00,12,19.80
2013,07,23,00,13,19.80
2013,07,23,00,16,19.80
2013,07,23,00,17,19.80
2013,07,23,00,18,19.70
2013,07,23,00,19,19.70
2013,07,23,00,20,19.70
2013,07,23,00,21,19.70
2013,07,23,00,22,19.70
2013,07,23,00,23,19.70
2013,07,23,00,24,19.70
2013,07,23,00,25,19.70
2013,07,23,00,26,19.70
2013,07,23,00,27,19.70
2013,07,23,00,28,19.70
2013,07,23,00,29,19.60
2013,07,23,00,30,19.60
2013,07,23,00,31,19.60
2013,07,23,00,32,19.60
2013,07,23,00,33,19.60
2013,07,23,00,34,19.60
2013,07,23,00,35,19.60
2013,07,23,00,36,19.60
2013,07,23,00,37,19.60
2013,07,23,00,38,19.60
2013,07,23,00,39,19.50
2013,07,23,00,40,19.50
2013,07,23,00,41,19.50
2013,07,23,00,42,19.40
2013,07,23,00,43,19.40
2013,07,23,00,44,19.40
2013,07,23,00,45,19.40
2013,07,23,00,46,19.40
2013,07,23,00,47,19.40
2013,07,23,00,48,19.30
2013,07,23,00,49,19.30
2013,07,23,00,50,19.30
2013,07,23,00,51,19.30
2013,07,23,00,52,19.30
2013,07,23,00,53,19.30
2013,07,23,00,54,19.30
2013,07,23,00,55,19.30
2013,07,23,00,56,19.30
2013,07,23,00,57,19.30
2013,07,23,00,58,19.30
2013,07,23,00,59,19.30
2013,07,23,01,00,19.30
2013,07,23,01,01,19.40
2013,07,23,01,02,19.40
2013,07,23,01,03,19.40
2013,07,23,01,04,19.50
2013,07,23,01,05,19.60
2013,07,23,01,06,19.60
2013,07,23,01,07,19.60
2013,07,23,01,08,19.60
2013,07,23,01,09,19.70
2013,07,23,01,10,19.70
2013,07,23,01,11,19.70
2013,07,23,01,12,19.80
2013,07,23,01,13,19.80
2013,07,23,01,14,19.70
2013,07,23,01,15,19.70
2013,07,23,01,16,19.70
2013,07,23,01,17,19.70
2013,07,23,01,18,19.60
2013,07,23,01,19,19.50
2013,07,23,01,20,19.50
2013,07,23,01,21,19.40
2013,07,23,01,22,19.40
2013,07,23,01,23,19.40
2013,07,23,01,24,19.30
2013,07,23,01,25,19.30
2013,07,23,01,26,19.30
2013,07,23,01,27,19.20
2013,07,23,01,28,19.20
2013,07,23,01,29,19.20
2013,07,23,01,30,19.20
2013,07,23,01,31,19.20
2013,07,23,01,32,19.20
2013,07,23,01,33,19.30
2013,07,23,01,34,19.40
2013,07,23,01,35,19.50
2013,07,23,01,36,19.60
2013,07,23,01,37,19.70
2013,07,23,01,38,19.80
2013,07,23,01,39,19.90
2013,07,23,01,40,20.00
2013,07,23,01,41,20.00
2013,07,23,01,42,20.10
2013,07,23,01,43,20.10
2013,07,23,01,44,20.00
2013,07,23,01,45,20.00
2013,07,23,01,46,19.90
2013,07,23,01,47,19.90
2013,07,23,01,48,19.80
2013,07,23,01,49,19.80
2013,07,23,01,50,19.70
2013,07,23,01,51,19.70
2013,07,23,01,52,19.60
2013,07,23,01,53,19.60
2013,07,23,01,54,19.50
2013,07,23,01,55,19.50
2013,07,23,01,56,19.40
2013,07,23,01,57,19.40
2013,07,23,01,58,19.40
2013,07,23,01,59,19.40
2013,07,23,02,00,19.40
2013,07,23,02,01,19.50
2013,07,23,02,02,19.50
2013,07,23,02,03,19.60
2013,07,23,02,04,19.60
2013,07,23,02,05,19.60
2013,07,23,02,06,19.60
2013,07,23,02,07,19.60
2013,07,23,02,08,19.60
2013,07,23,02,09,19.70
2013,07,23,02,10,19.80
2013,07,23,02,11,19.80
2013,07,23,02,12,19.80
2013,07,23,02,13,19.80
2013,07,23,02,14,19.80
2013,07,23,02,15,19.70
2013,07,23,02,16,19.70
2013,07,23,02,17,19.70
2013,07,23,02,18,19.70
2013,07,23,02,19,19.80
2013,07,23,02,20,19.80
2013,07,23,02,21,19.80
2013,07,23,02,22,19.80
2013,07,23,02,23,19.80
2013,07,23,02,24,19.90
2013,07,23,02,25,19.90
2013,07,23,02,26,19.90
2013,07,23,02,27,20.00
2013,07,23,02,28,20.00
2013,07,23,02,29,20.00
2013,07,23,02,30,20.00
2013,07,23,02,31,19.90
2013,07,23,02,32,19.90
2013,07,23,02,33,19.90
2013,07,23,02,34,19.90
2013,07,23,02,35,19.90
2013,07,23,02,36,19.90
2013,07,23,02,37,19.80
2013,07,23,02,38,19.60
2013,07,23,02,39,19.40
2013,07,23,02,40,19.30
2013,07,23,02,41,19.20
2013,07,23,02,42,19.10
2013,07,23,02,43,19.00
2013,07,23,02,44,18.90
2013,07,23,02,45,18.80
2013,07,23,02,46,18.80
2013,07,23,02,47,18.70
2013,07,23,02,48,18.70
2013,07,23,02,49,18.70
2013,07,23,02,50,18.70
2013,07,23,02,51,18.60
2013,07,23,02,52,18.60
2013,07,23,02,53,18.60
2013,07,23,02,54,18.60
2013,07,23,02,55,18.50
2013,07,23,02,56,18.50
2013,07,23,02,57,18.40
2013,07,23,02,58,18.40
2013,07,23,02,59,18.40
2013,07,23,03,00,18.30
2013,07,23,03,01,18.30
2013,07,23,03,02,18.20
2013,07,23,03,03,18.20
2013,07,23,03,04,18.20
2013,07,23,03,05,18.20
2013,07,23,03,06,18.20
2013,07,23,03,07,18.20
2013,07,23,03,08,18.10
2013,07,23,03,09,18.10
2013,07,23,03,10,18.10
2013,07,23,03,11,18.10
2013,07,23,03,12,18.00
2013,07,23,03,13,18.00
2013,07,23,03,14,17.90
2013,07,23,03,15,17.90
2013,07,23,03,16,17.90
2013,07,23,03,17,17.90
2013,07,23,03,18,17.90
2013,07,23,03,19,17.90
2013,07,23,03,20,17.90
2013,07,23,03,21,17.90
2013,07,23,03,22,17.80
2013,07,23,03,23,17.80
2013,07,23,03,24,17.80
2013,07,23,03,25,17.80
2013,07,23,03,26,17.80
2013,07,23,03,27,17.70
2013,07,23,03,28,17.70
2013,07,23,03,29,17.70
2013,07,23,03,30,17.70
2013,07,23,03,31,17.60
2013,07,23,03,32,17.60
2013,07,23,03,33,17.50
2013,07,23,03,34,17.50
2013,07,23,03,35,17.40
2013,07,23,03,36,17.40
2013,07,23,03,37,17.30
2013,07,23,03,38,17.30
2013,07,23,03,39,17.30
2013,07,23,03,40,17.30
2013,07,23,03,41,17.30
2013,07,23,03,42,17.30
2013,07,23,03,43,17.30
2013,07,23,03,44,17.20
2013,07,23,03,45,17.20
2013,07,23,03,46,17.20
2013,07,23,03,47,17.20
2013,07,23,03,48,17.20
2013,07,23,03,49,17.20
2013,07,23,03,50,17.20
2013,07,23,03,51,17.20
2013,07,23,03,52,17.30
2013,07,23,03,53,17.30
2013,07,23,03,54,17.30
2013,07,23,03,55,17.40
2013,07,23,03,56,17.40
2013,07,23,03,57,17.50
2013,07,23,03,58,17.50
2013,07,23,03,59,17.50
2013,07,23,04,00,17.50
2013,07,23,04,01,17.50
2013,07,23,04,02,17.60
2013,07,23,04,03,17.60
2013,07,23,04,04,17.60
2013,07,23,04,05,17.60
2013,07,23,04,06,17.60
2013,07,23,04,07,17.60
2013,07,23,04,08,17.60
2013,07,23,04,09,17.60
2013,07,23,04,10,17.60
2013,07,23,04,11,17.50
2013,07,23,04,12,17.50
2013,07,23,04,13,17.40
2013,07,23,04,14,17.40
2013,07,23,04,15,17.50
2013,07,23,04,16,17.50
2013,07,23,04,17,17.50
2013,07,23,04,18,17.50
2013,07,23,04,19,17.50
2013,07,23,04,20,17.50
2013,07,23,04,21,17.50
2013,07,23,04,22,17.50
2013,07,23,04,23,17.60
2013,07,23,04,24,17.60
2013,07,23,04,25,17.60
2013,07,23,04,26,17.60
2013,07,23,04,27,17.70
2013,07,23,04,28,17.70
2013,07,23,04,29,17.70
2013,07,23,04,30,17.70
2013,07,23,04,31,17.70
2013,07,23,04,32,17.70
2013,07,23,04,33,17.70
2013,07,23,04,34,17.70
2013,07,23,04,35,17.70
2013,07,23,04,36,17.70
2013,07,23,04,37,17.70
2013,07,23,04,38,17.80
2013,07,23,04,39,17.80
2013,07,23,04,40,17.80
2013,07,23,04,41,17.90
2013,07,23,04,42,17.90
2013,07,23,04,43,17.90
2013,07,23,04,44,18.00
2013,07,23,04,45,18.00
2013,07,23,04,46,18.00
2013,07,23,04,47,18.00
2013,07,23,04,48,18.00
2013,07,23,04,49,17.90
2013,07,23,04,50,17.90
2013,07,23,04,51,17.80
2013,07,23,04,52,17.80
2013,07,23,04,53,17.70
2013,07,23,04,54,17.70
2013,07,23,04,55,17.70
2013,07,23,04,56,17.70
2013,07,23,04,57,17.70
2013,07,23,04,58,17.80
2013,07,23,04,59,17.80
2013,07,23,05,00,17.90
2013,07,23,05,01,18.00
2013,07,23,05,02,18.00
2013,07,23,05,03,18.10
2013,07,23,05,04,18.20
2013,07,23,05,05,18.20
2013,07,23,05,06,18.30
2013,07,23,05,07,18.30
2013,07,23,05,08,18.30
2013,07,23,05,09,18.40
2013,07,23,05,10,18.40
2013,07,23,05,11,18.40
2013,07,23,05,12,18.40
2013,07,23,05,13,18.40
2013,07,23,05,14,18.40
2013,07,23,05,15,18.40
2013,07,23,05,16,18.40
2013,07,23,05,17,18.40
2013,07,23,05,18,18.40
2013,07,23,05,19,18.30
2013,07,23,05,20,18.30
2013,07,23,05,21,18.30
2013,07,23,05,22,18.30
2013,07,23,05,23,18.20
2013,07,23,05,24,18.20
2013,07,23,05,25,18.20
2013,07,23,05,26,18.20
2013,07,23,05,27,18.10
2013,07,23,05,28,18.10
2013,07,23,05,29,18.10
2013,07,23,05,30,18.10
2013,07,23,05,31,18.10
2013,07,23,05,32,18.10
2013,07,23,05,33,18.10
2013,07,23,05,34,18.00
2013,07,23,05,35,18.00
2013,07,23,05,36,17.90
2013,07,23,05,37,17.80
2013,07,23,05,38,17.70
2013,07,23,05,39,17.60
2013,07,23,05,40,17.50
2013,07,23,05,41,17.40
2013,07,23,05,42,17.30
2013,07,23,05,43,17.20
2013,07,23,05,44,17.20
2013,07,23,05,45,17.10
2013,07,23,05,46,17.10
2013,07,23,05,47,17.10
2013,07,23,05,48,17.00
2013,07,23,05,49,17.00
2013,07,23,05,50,17.00
2013,07,23,05,51,17.00
2013,07,23,05,52,17.10
2013,07,23,05,53,17.10
2013,07,23,05,54,17.20
2013,07,23,05,55,17.30
2013,07,23,05,56,17.40
2013,07,23,05,57,17.50
2013,07,23,05,58,17.60
2013,07,23,05,59,17.70
2013,07,23,06,00,17.80
2013,07,23,06,01,17.80
2013,07,23,06,02,17.80
2013,07,23,06,03,17.90
2013,07,23,06,04,17.80
2013,07,23,06,05,17.80
2013,07,23,06,06,17.80
2013,07,23,06,07,17.70
2013,07,23,06,08,17.60
2013,07,23,06,09,17.60
2013,07,23,06,10,17.50
2013,07,23,06,11,17.50
2013,07,23,06,12,17.50
2013,07,23,06,13,17.50
2013,07,23,06,14,17.50
2013,07,23,06,15,17.50
2013,07,23,06,16,17.50
2013,07,23,06,17,17.60
2013,07,23,06,18,17.60
2013,07,23,06,19,17.60
2013,07,23,06,20,17.60
2013,07,23,06,21,17.60
2013,07,23,06,22,17.60
2013,07,23,06,23,17.60
2013,07,23,06,24,17.70
2013,07,23,06,25,17.70
2013,07,23,06,26,17.70
2013,07,23,06,27,17.70
2013,07,23,06,28,17.60
2013,07,23,06,29,17.50
2013,07,23,06,30,17.40
2013,07,23,06,31,17.30
2013,07,23,06,32,17.20
2013,07,23,06,33,17.20
2013,07,23,06,34,17.10
2013,07,23,06,35,17.10
2013,07,23,06,36,17.00
2013,07,23,06,37,17.00
2013,07,23,06,38,17.00
2013,07,23,06,39,17.00
2013,07,23,06,40,17.00
2013,07,23,06,41,17.00
2013,07,23,06,42,17.00
2013,07,23,06,43,17.00
2013,07,23,06,44,17.00
2013,07,23,06,45,17.00
2013,07,23,06,46,17.10
2013,07,23,06,47,17.10
2013,07,23,06,48,17.10
2013,07,23,06,49,17.10
2013,07,23,06,50,17.10
2013,07,23,06,51,17.20
2013,07,23,06,52,17.20
2013,07,23,06,53,17.20
2013,07,23,06,54,17.20
2013,07,23,06,55,17.20
2013,07,23,06,56,17.20
2013,07,23,06,57,17.20
2013,07,23,06,58,17.20
2013,07,23,06,59,17.20
2013,07,23,07,00,17.20
2013,07,23,07,01,17.30
2013,07,23,07,02,17.30
2013,07,23,07,03,17.30
2013,07,23,07,04,17.30
2013,07,23,07,05,17.40
2013,07,23,07,06,17.40
2013,07,23,07,07,17.40
2013,07,23,07,08,17.40
2013,07,23,07,09,17.50
2013,07,23,07,10,17.50
2013,07,23,07,11,17.60
2013,07,23,07,12,17.60
2013,07,23,07,13,17.60
2013,07,23,07,14,17.70
2013,07,23,07,15,17.70
2013,07,23,07,16,17.70
2013,07,23,07,17,17.80
2013,07,23,07,18,17.80
2013,07,23,07,19,17.80
2013,07,23,07,20,17.90
2013,07,23,07,21,17.90
2013,07,23,07,22,17.90
2013,07,23,07,23,18.00
2013,07,23,07,24,18.00
2013,07,23,07,25,18.00
2013,07,23,07,26,18.10
2013,07,23,07,27,18.10
2013,07,23,07,28,18.20
2013,07,23,07,29,18.20
2013,07,23,07,30,18.20
2013,07,23,07,31,18.30
2013,07,23,07,32,18.40
2013,07,23,07,33,18.40
2013,07,23,07,34,18.40
2013,07,23,07,35,18.50
2013,07,23,07,36,18.50
2013,07,23,07,37,18.60
2013,07,23,07,38,18.60
2013,07,23,07,39,18.60
2013,07,23,07,40,18.60
2013,07,23,07,41,18.60
2013,07,23,07,42,18.60
2013,07,23,07,43,18.70
2013,07,23,07,44,18.70
2013,07,23,07,45,18.70
2013,07,23,07,46,18.70
2013,07,23,07,47,18.80
2013,07,23,07,48,18.80
2013,07,23,07,49,18.80
2013,07,23,07,50,18.80
2013,07,23,07,51,18.80
2013,07,23,07,52,18.80
2013,07,23,07,53,18.80
2013,07,23,07,54,18.80
2013,07,23,07,55,18.90
2013,07,23,07,56,18.90
2013,07,23,07,57,18.90
2013,07,23,07,58,18.90
2013,07,23,07,59,18.90
2013,07,23,08,00,19.00
2013,07,23,08,01,19.00
2013,07,23,08,02,19.10
2013,07,23,08,03,19.10
2013,07,23,08,04,19.20
2013,07,23,08,05,19.30
2013,07,23,08,06,19.40
2013,07,23,08,07,19.40
2013,07,23,08,08,19.50
2013,07,23,08,09,19.60
2013,07,23,08,10,19.80
2013,07,23,08,11,19.80
2013,07,23,08,12,19.90
2013,07,23,08,13,20.00
2013,07,23,08,14,20.00
2013,07,23,08,15,20.20
2013,07,23,08,16,20.20
2013,07,23,08,17,20.20
2013,07,23,08,18,20.20
2013,07,23,08,19,20.20
2013,07,23,08,20,20.20
2013,07,23,08,21,20.20
2013,07,23,08,22,20.20
2013,07,23,08,23,20.30
2013,07,23,08,24,20.30
2013,07,23,08,25,20.30
2013,07,23,08,26,20.30
2013,07,23,08,27,20.30
2013,07,23,08,28,20.30
2013,07,23,08,29,20.30
2013,07,23,08,30,20.30
2013,07,23,08,31,20.30
2013,07,23,08,32,20.30
2013,07,23,08,33,20.30
2013,07,23,08,34,20.30
2013,07,23,08,35,20.30
2013,07,23,08,36,20.30
2013,07,23,08,37,20.30
2013,07,23,08,38,20.40
2013,07,23,08,39,20.50
2013,07,23,08,40,20.60
2013,07,23,08,41,20.60
2013,07,23,08,42,20.70
2013,07,23,08,43,20.80
2013,07,23,08,44,20.80
2013,07,23,08,45,20.90
2013,07,23,08,46,21.00
2013,07,23,08,47,21.10
2013,07,23,08,48,21.20
2013,07,23,08,49,21.30
2013,07,23,08,50,21.40
2013,07,23,08,51,21.50
2013,07,23,08,52,21.60
2013,07,23,08,53,21.70
2013,07,23,08,54,21.80
2013,07,23,08,55,21.80
2013,07,23,08,56,21.80
2013,07,23,08,57,21.70
2013,07,23,08,58,21.70
2013,07,23,08,59,21.70
2013,07,23,09,00,21.70
2013,07,23,09,01,21.70
2013,07,23,09,02,21.70
2013,07,23,09,03,21.80
2013,07,23,09,04,21.90
2013,07,23,09,05,22.00
2013,07,23,09,06,22.00
2013,07,23,09,07,22.10
2013,07,23,09,08,22.10
2013,07,23,09,09,22.10
2013,07,23,09,10,22.10
2013,07,23,09,11,22.10
2013,07,23,09,12,22.20
2013,07,23,09,13,22.20
2013,07,23,09,14,22.30
2013,07,23,09,15,22.40
2013,07,23,09,16,22.40
2013,07,23,09,17,22.50
2013,07,23,09,18,22.60
2013,07,23,09,19,22.60
2013,07,23,09,20,22.70
2013,07,23,09,21,22.80
2013,07,23,09,22,22.80
2013,07,23,09,23,22.90
2013,07,23,09,24,22.90
2013,07,23,09,25,22.90
2013,07,23,09,26,23.00
2013,07,23,09,27,23.00
2013,07,23,09,28,23.00
2013,07,23,09,29,22.90
2013,07,23,09,30,22.90
2013,07,23,09,31,22.90
2013,07,23,09,32,22.90
2013,07,23,09,33,22.90
2013,07,23,09,34,22.90
2013,07,23,09,35,22.90
2013,07,23,09,36,23.00
2013,07,23,09,37,23.00
2013,07,23,09,38,23.00
2013,07,23,09,39,23.10
2013,07,23,09,40,23.10
2013,07,23,09,41,23.20
2013,07,23,09,42,23.20
2013,07,23,09,43,23.20
2013,07,23,09,44,23.20
2013,07,23,09,45,23.30
2013,07,23,09,46,23.20
2013,07,23,09,47,23.20
2013,07,23,09,48,23.20
2013,07,23,09,49,23.20
2013,07,23,09,50,23.20
2013,07,23,09,51,23.30
2013,07,23,09,52,23.30
2013,07,23,09,53,23.20
2013,07,23,09,54,23.20
2013,07,23,09,55,23.30
2013,07,23,09,56,23.30
2013,07,23,09,57,23.30
2013,07,23,09,58,23.40
2013,07,23,09,59,23.40
2013,07,23,10,00,23.50
2013,07,23,10,01,23.50
2013,07,23,10,02,23.60
2013,07,23,10,03,23.60
2013,07,23,10,04,23.50
2013,07,23,10,05,23.40
2013,07,23,10,06,23.30
2013,07,23,10,07,23.20
2013,07,23,10,08,23.30
2013,07,23,10,09,23.30
2013,07,23,10,10,23.50
2013,07,23,10,11,23.60
2013,07,23,10,12,23.60
2013,07,23,10,13,23.60
2013,07,23,10,14,23.70
2013,07,23,10,15,23.60
2013,07,23,10,16,23.40
2013,07,23,10,17,23.40
2013,07,23,10,18,23.40
2013,07,23,10,19,23.50
2013,07,23,10,20,23.50
2013,07,23,10,21,23.60
2013,07,23,10,22,23.60
2013,07,23,10,23,23.70
2013,07,23,10,24,23.80
2013,07,23,10,25,23.80
2013,07,23,10,26,23.80
2013,07,23,10,27,23.80
2013,07,23,10,28,23.80
2013,07,23,10,29,23.70
2013,07,23,10,30,23.60
2013,07,23,10,31,23.60
2013,07,23,10,32,23.70
2013,07,23,10,33,23.70
2013,07,23,10,34,23.80
2013,07,23,10,35,23.80
2013,07,23,10,36,23.80
2013,07,23,10,37,23.70
2013,07,23,10,38,23.70
2013,07,23,10,39,23.60
2013,07,23,10,40,23.60
2013,07,23,10,41,23.70
2013,07,23,10,42,23.80
2013,07,23,10,43,23.80
2013,07,23,10,44,23.90
2013,07,23,10,45,24.00
2013,07,23,10,46,24.10
2013,07,23,10,47,24.10
2013,07,23,10,48,24.20
2013,07,23,10,49,24.20
2013,07,23,10,50,24.20
2013,07,23,10,51,24.20
2013,07,23,10,52,24.20
2013,07,23,10,53,24.20
2013,07,23,10,54,24.30
2013,07,23,10,55,24.30
2013,07,23,10,56,24.20
2013,07,23,10,57,24.10
2013,07,23,10,58,24.00
2013,07,23,10,59,24.00
2013,07,23,11,00,24.10
2013,07,23,11,01,24.10
2013,07,23,11,02,24.10
2013,07,23,11,03,24.00
2013,07,23,11,04,24.10
2013,07,23,11,05,24.10
2013,07,23,11,06,24.20
2013,07,23,11,07,24.20
2013,07,23,11,08,24.20
2013,07,23,11,09,24.20
2013,07,23,11,10,24.20
2013,07,23,11,11,24.20
2013,07,23,11,12,24.20
2013,07,23,11,13,24.20
2013,07,23,11,14,24.20
2013,07,23,11,15,24.20
2013,07,23,11,16,24.20
2013,07,23,11,17,24.20
2013,07,23,11,18,24.00
2013,07,23,11,19,23.90
2013,07,23,11,20,23.80
2013,07,23,11,21,23.90
2013,07,23,11,22,23.90
2013,07,23,11,23,24.10
2013,07,23,11,24,24.10
2013,07,23,11,25,24.10
2013,07,23,11,26,24.00
2013,07,23,11,27,24.00
2013,07,23,11,28,23.90
2013,07,23,11,29,24.10
2013,07,23,11,30,24.20
2013,07,23,11,31,24.30
2013,07,23,11,32,24.50
2013,07,23,11,33,24.60
2013,07,23,11,34,24.60
2013,07,23,11,35,24.60
2013,07,23,11,36,24.80
2013,07,23,11,37,24.90
2013,07,23,11,38,24.90
2013,07,23,11,39,25.00
2013,07,23,11,40,25.10
2013,07,23,11,41,25.10
2013,07,23,11,42,25.20
2013,07,23,11,43,25.20
2013,07,23,11,44,25.20
2013,07,23,11,45,24.90
2013,07,23,11,46,24.80
2013,07,23,11,47,24.70
2013,07,23,11,48,24.80
2013,07,23,11,49,24.70
2013,07,23,11,50,24.70
2013,07,23,11,51,24.70
2013,07,23,11,52,24.70
2013,07,23,11,53,24.70
2013,07,23,11,54,24.80
2013,07,23,11,55,24.90
2013,07,23,11,56,25.00
2013,07,23,11,57,25.10
2013,07,23,11,58,25.20
2013,07,23,11,59,25.20
2013,07,23,12,00,25.20
2013,07,23,12,01,25.20
2013,07,23,12,02,25.20
2013,07,23,12,03,25.20
2013,07,23,12,04,25.20
2013,07,23,12,05,25.20
2013,07,23,12,06,25.30
2013,07,23,12,07,25.40
2013,07,23,12,08,25.40
2013,07,23,12,09,25.50
2013,07,23,12,10,25.60
2013,07,23,12,11,25.60
2013,07,23,12,12,25.60
2013,07,23,12,13,25.60
2013,07,23,12,14,25.70
2013,07,23,12,15,25.70
2013,07,23,12,16,25.80
2013,07,23,12,17,25.90
2013,07,23,12,18,25.90
2013,07,23,12,19,26.00
2013,07,23,12,20,26.10
2013,07,23,12,21,26.20
2013,07,23,12,22,26.20
2013,07,23,12,23,26.10
2013,07,23,12,24,26.10
2013,07,23,12,25,26.10
2013,07,23,12,26,26.10
2013,07,23,12,27,26.20
2013,07,23,12,28,26.20
2013,07,23,12,29,26.30
2013,07,23,12,30,26.20
2013,07,23,12,31,26.20
2013,07,23,12,32,26.00
2013,07,23,12,33,26.00
2013,07,23,12,34,26.10
2013,07,23,12,35,26.00
2013,07,23,12,36,26.00
2013,07,23,12,37,26.10
2013,07,23,12,38,26.10
2013,07,23,12,39,26.20
2013,07,23,12,40,26.20
2013,07,23,12,41,26.30
2013,07,23,12,42,26.20
2013,07,23,12,43,26.20
2013,07,23,12,44,26.20
2013,07,23,12,45,26.20
2013,07,23,12,46,26.20
2013,07,23,12,47,26.10
2013,07,23,12,48,26.10
2013,07,23,12,49,26.10
2013,07,23,12,50,26.10
2013,07,23,12,51,26.10
2013,07,23,12,52,26.10
2013,07,23,12,53,26.20
2013,07,23,12,54,26.30
2013,07,23,12,55,26.30
2013,07,23,12,56,26.20
2013,07,23,12,57,26.10
2013,07,23,12,58,26.10
2013,07,23,12,59,26.20
2013,07,23,13,00,26.20
2013,07,23,13,01,26.30
2013,07,23,13,02,26.30
2013,07,23,13,03,26.30
2013,07,23,13,04,26.20
2013,07,23,13,05,26.20
2013,07,23,13,06,26.30
2013,07,23,13,07,26.30
2013,07,23,13,08,26.40
2013,07,23,13,09,26.40
2013,07,23,13,10,26.40
2013,07,23,13,11,26.40
2013,07,23,13,12,26.40
2013,07,23,13,13,26.40
2013,07,23,13,14,26.40
2013,07,23,13,15,26.40
2013,07,23,13,16,26.50
2013,07,23,13,17,26.60
2013,07,23,13,18,26.60
2013,07,23,13,19,26.50
2013,07,23,13,20,26.40
2013,07,23,13,21,26.30
2013,07,23,13,22,26.30
2013,07,23,13,23,26.30
2013,07,23,13,24,26.30
2013,07,23,13,25,26.20
2013,07,23,13,26,26.20
2013,07,23,13,27,26.20
2013,07,23,13,28,26.10
2013,07,23,13,29,26.10
2013,07,23,13,30,26.20
2013,07,23,13,31,26.20
2013,07,23,13,32,26.10
2013,07,23,13,33,25.90
2013,07,23,13,34,25.90
2013,07,23,13,35,26.00
2013,07,23,13,36,26.10
2013,07,23,13,37,26.20
2013,07,23,13,38,26.10
2013,07,23,13,39,26.10
2013,07,23,13,40,26.10
2013,07,23,13,41,26.10
2013,07,23,13,42,26.20
2013,07,23,13,43,26.30
2013,07,23,13,44,26.30
2013,07,23,13,45,26.40
2013,07,23,13,46,26.40
2013,07,23,13,47,26.50
2013,07,23,13,48,26.50
2013,07,23,13,49,26.50
2013,07,23,13,50,26.40
2013,07,23,13,51,26.40
2013,07,23,13,52,26.50
2013,07,23,13,53,26.60
2013,07,23,13,54,26.70
2013,07,23,13,55,26.70
2013,07,23,13,56,26.60
2013,07,23,13,57,26.60
2013,07,23,13,58,26.60
2013,07,23,13,59,26.60
2013,07,23,14,00,26.70
2013,07,23,14,01,26.80
2013,07,23,14,02,26.80
2013,07,23,14,03,26.80
2013,07,23,14,04,26.90
2013,07,23,14,05,26.80
2013,07,23,14,06,26.80
2013,07,23,14,07,26.90
2013,07,23,14,08,26.90
2013,07,23,14,09,26.80
2013,07,23,14,10,26.80
2013,07,23,14,11,26.80
2013,07,23,14,12,26.80
2013,07,23,14,13,26.60
2013,07,23,14,14,26.20
2013,07,23,14,15,25.90
2013,07,23,14,16,25.70
2013,07,23,14,17,25.60
2013,07,23,14,18,25.40
2013,07,23,14,19,25.40
2013,07,23,14,20,25.30
2013,07,23,14,21,25.20
2013,07,23,14,22,25.10
2013,07,23,14,23,25.00
2013,07,23,14,24,25.10
2013,07,23,14,25,25.10
2013,07,23,14,26,25.20
2013,07,23,14,27,25.30
2013,07,23,14,28,25.30
2013,07,23,14,29,25.40
2013,07,23,14,30,25.50
2013,07,23,14,31,25.60
2013,07,23,14,32,25.70
2013,07,23,14,33,25.70
2013,07,23,14,34,25.50
2013,07,23,14,35,25.40
2013,07,23,14,36,25.20
2013,07,23,14,37,25.00
2013,07,23,14,38,24.90
2013,07,23,14,39,24.80
2013,07,23,14,40,24.70
2013,07,23,14,41,24.60
2013,07,23,14,42,24.50
2013,07,23,14,43,24.50
2013,07,23,14,44,24.50
2013,07,23,14,45,24.60
2013,07,23,14,46,24.60
2013,07,23,14,47,24.70
2013,07,23,14,48,24.60
2013,07,23,14,49,24.50
2013,07,23,14,50,24.50
2013,07,23,14,51,24.50
2013,07,23,14,52,24.50
2013,07,23,14,53,24.70
2013,07,23,14,54,24.80
2013,07,23,14,55,24.90
2013,07,23,14,56,24.80
2013,07,23,14,57,24.80
2013,07,23,14,58,24.80
2013,07,23,14,59,24.80
2013,07,23,15,00,24.80
2013,07,23,15,01,24.90
2013,07,23,15,02,25.00
2013,07,23,15,03,25.00
2013,07,23,15,04,25.00
2013,07,23,15,05,24.90
2013,07,23,15,06,24.80
2013,07,23,15,07,24.70
2013,07,23,15,08,24.70
2013,07,23,15,09,24.80
2013,07,23,15,10,24.80
2013,07,23,15,11,24.90
2013,07,23,15,12,24.80
2013,07,23,15,13,24.90
2013,07,23,15,14,24.90
2013,07,23,15,15,24.90
2013,07,23,15,16,25.00
2013,07,23,15,17,25.00
2013,07,23,15,18,25.10
2013,07,23,15,19,25.10
2013,07,23,15,20,25.10
2013,07,23,15,21,25.10
2013,07,23,15,22,25.20
2013,07,23,15,23,25.20
2013,07,23,15,24,25.20
2013,07,23,15,25,25.20
2013,07,23,15,26,25.20
2013,07,23,15,27,25.20
2013,07,23,15,28,25.30
2013,07,23,15,29,25.30
2013,07,23,15,30,25.30
2013,07,23,15,31,25.30
2013,07,23,15,32,25.30
2013,07,23,15,33,25.30
2013,07,23,15,34,25.30
2013,07,23,15,35,25.30
2013,07,23,15,36,25.30
2013,07,23,15,37,25.30
2013,07,23,15,38,25.30
2013,07,23,15,39,25.20
2013,07,23,15,40,25.20
2013,07,23,15,41,25.10
2013,07,23,15,42,25.20
2013,07,23,15,43,25.30
2013,07,23,15,44,25.40
2013,07,23,15,45,25.40
2013,07,23,15,46,25.40
2013,07,23,15,47,25.40
2013,07,23,15,48,25.40
2013,07,23,15,49,25.50
2013,07,23,15,50,25.60
2013,07,23,15,51,25.60
2013,07,23,15,52,25.80
2013,07,23,15,53,25.90
2013,07,23,15,54,25.90
2013,07,23,15,55,25.80
2013,07,23,15,56,25.80
2013,07,23,15,57,25.70
2013,07,23,15,58,25.70
2013,07,23,15,59,25.80
2013,07,23,16,00,25.80
2013,07,23,16,01,25.80
2013,07,23,16,02,25.80
2013,07,23,16,03,25.70
2013,07,23,16,04,25.70
2013,07,23,16,05,25.70
2013,07,23,16,06,25.80
2013,07,23,16,07,25.90
2013,07,23,16,08,25.80
2013,07,23,16,09,25.70
2013,07,23,16,10,25.60
2013,07,23,16,11,25.60
2013,07,23,16,12,25.60
2013,07,23,16,13,25.50
2013,07,23,16,14,25.50
2013,07,23,16,15,25.50
2013,07,23,16,16,25.60
2013,07,23,16,17,25.60
2013,07,23,16,18,25.60
2013,07,23,16,19,25.50
2013,07,23,16,20,25.40
2013,07,23,16,21,25.30
2013,07,23,16,22,25.30
2013,07,23,16,23,25.30
2013,07,23,16,24,25.30
2013,07,23,16,25,25.30
2013,07,23,16,26,25.20
2013,07,23,16,27,25.20
2013,07,23,16,28,25.20
2013,07,23,16,29,25.20
2013,07,23,16,30,25.20
2013,07,23,16,31,25.20
2013,07,23,16,32,25.20
2013,07,23,16,33,25.20
2013,07,23,16,34,25.20
2013,07,23,16,35,25.20
2013,07,23,16,36,25.30
2013,07,23,16,37,25.30
2013,07,23,16,38,25.30
2013,07,23,16,39,25.40
2013,07,23,16,40,25.50
2013,07,23,16,41,25.60
2013,07,23,16,42,25.60
2013,07,23,16,43,25.50
2013,07,23,16,44,25.40
2013,07,23,16,45,25.30
2013,07,23,16,46,25.20
2013,07,23,16,47,25.10
2013,07,23,16,48,25.10
2013,07,23,16,49,25.10
2013,07,23,16,50,25.10
2013,07,23,16,51,25.10
2013,07,23,16,52,25.10
2013,07,23,16,53,25.10
2013,07,23,16,54,25.10
2013,07,23,16,55,25.10
2013,07,23,16,56,25.20
2013,07,23,16,57,25.20
2013,07,23,16,58,25.20
2013,07,23,16,59,25.20
2013,07,23,17,00,25.30
2013,07,23,17,01,25.30
2013,07,23,17,02,25.30
2013,07,23,17,03,25.30
2013,07,23,17,04,25.20
2013,07,23,17,05,25.20
2013,07,23,17,06,25.20
2013,07,23,17,07,25.20
2013,07,23,17,08,25.30
2013,07,23,17,09,25.40
2013,07,23,17,10,25.40
2013,07,23,17,11,25.30
2013,07,23,17,12,25.30
2013,07,23,17,13,25.30
2013,07,23,17,14,25.40
2013,07,23,17,15,25.50
2013,07,23,17,16,25.60
2013,07,23,17,17,25.60
2013,07,23,17,18,25.70
2013,07,23,17,19,25.70
2013,07,23,17,20,25.80
2013,07,23,17,21,25.70